Regional Weather Roundup
Issued by NWS Charleston, SC

Current Version | Previous Version | Graphics & Text | Print | Product List | Glossary On
Versions: 1 2 3 4 5 6 7 8 9 10 11 12 13 14 15 16 17 18 19 20 21 22 23 24 25 26 27 28 29 30 31 32 33 34 35 36 37 38 39 40 41 42 43 44 45 46 47 48 49 50
000
ASUS42 KCHS 280428
RWRCHS

Regional Weather Roundup
National Weather Service Charleston SC
1200 AM EDT MON MAY 28 2018

NOTE: "fair" indicates few or no clouds below 12,000 feet with no
significant weather and/or obstructions to visibility.

Not all stations are quality controlled. Use data with caution,
especially dewpoint observations.

SCZ027-030-031-034>040-042>050-280500-
...Southeast South Carolina...

CITY           SKY/WX    TMP DP  RH WIND       PRES   REMARKS
N Charleston   HVY RAIN  75  74  96 S16       29.96R FOG
Waterfront Prk   N/A     77  75  93 E15       29.78S
Mount Pleasant RAIN      73  73 100 SE12G25   29.95S
Johns Island   MOCLDY    75  73  94 SE9       29.93F FOG
Pinopolis        N/A     72  72 100 E6        29.88
Moncks Corner  DRIZZLE   70  70 100 E6        29.95F
Summerville    RAIN      72  70  94 CALM      29.95F
Beaufort MCAS  LGT RAIN  75  75 100 SE12G20   29.89F
Beaufort Arpt  DRIZZLE   73  72  94 SE12      29.89S
Hilton Head Is DRIZZLE   75  73  94 SE12G22   29.89F
Walterboro     LGT RAIN  72  70  94 E8        29.93F
Allendale      DRIZZLE   72  72 100 VRB3      29.91F

...Southern Midlands and Pee Dee...

CITY           SKY/WX    TMP DP  RH WIND       PRES   REMARKS
Georgetown     MOCLDY    73  72  94 E6        29.98F
Kingstree      DRIZZLE   70  68  94 CALM      29.98F
Orangeburg     LGT RAIN  72  70  93 E6        29.95F
Barnwell       RAIN      72  70  94 E7        29.93F
Aiken          RAIN      70  70 100 E7        29.99F
Manning        LGT RAIN  66  66 100 E3        29.97F
Columbia       LGT RAIN  73  73 100 E7        29.97F
Sumter         LGT RAIN  72  70  94 E5        29.97S
Florence       LGT RAIN  73  71  93 E5        30.00F
Myrtle Beach   MOCLDY    75  72  90 SE5       30.01S
N Myrtle Beach FAIR      76  72  87 CALM      30.00F

$$

GAZ063-065-086>088-099>101-113>116-118-119-134>141-150-280500-
...Southeast Georgia...

CITY           SKY/WX    TMP DP  RH WIND       PRES   REMARKS
Savannah Arpt  RAIN      74  73  97 SE14      29.86F FOG
Hunter AAF     FAIR      75  72  88 SE9       29.84
Fort Stewart   LGT RAIN  75  73  94 E7        29.83F
Statesboro     LGT RAIN  72  72  99 E3        29.87F
Sylvania       HVY RAIN  73  73  99 E5        29.89F
Claxton        CLOUDY    75  74  96 NE3       29.87S

...CSRA, Central and far Southeast Georgia...

CITY           SKY/WX    TMP DP  RH WIND       PRES   REMARKS
Thomson        LGT RAIN  71  70  96 SE8       29.98F FOG
Augusta-Bush   LGT RAIN  72  71  97 E6        29.92F
Augusta-Daniel RAIN      73  72  96 E6        29.95F
Swainsboro     HVY RAIN  72  72 100 E7        29.89F
Vidalia        CLOUDY    73  70  88 E7        29.86F
Eastman        DRIZZLE   74  66  77 E6        29.89S
Hazlehurst       N/A     74  71  88 E3        29.84S
Alma           CLOUDY    75  72  90 VRB3      29.82F
Waycross       CLOUDY    75  72  90 SE5       29.82S
Jesup          CLOUDY    76  72  89 CALM      29.83F
Baxley         CLOUDY    72  72 100 CALM      29.83F
Brunswick      CLOUDY    77  72  83 SE9G18    29.83F
Saint Simons   CLOUDY    78  76  93 SE14      29.83S

$$

SCZ027-028-034-036>038-045-046-048>050-GAZ119-141-280500-
...Lake and Supplemental Coastal Observations...

STATION/POSITION TIME  TEMP    WIND        PRES    WAVE   SWELL
                       AIR SEA DIR/SP/G            HT/PER HT/PER/DIR
                 (UTC) (F)     (DEG/KT/KT) (MB)    (FT/S) (FT/S/D)
Winyah Bay       0345   76     120/  6     1015.0F
Lake Murray      0320   73      90/  9/ 11 1014.6
ACE Basin NERRS  0345   75     120/  4     1013.0S
Fort Pulaski     0400   75 79  140/ 11/ 18 1011.8
Sapelo Island    0400   75     130/  8     1010.0

$$

ANZ835-935-AMZ111-154-330-350-352-354-370-450-454-472-280500-
...C-MAN and Buoy Observations...

STATION/POSITION TIME  TEMP    WIND        PRES    WAVE   SWELL
                       AIR SEA DIR/SP/G            HT/PER HT/PER/DIR
                 (UTC) (F)     (DEG/KT/KT) (MB)    (FT/S) (FT/S/D)
Buoy 41004       0400      76  150/ 16/ 21 1013.8
Buoy 41008       0350   76 77  120/ 19/ 27 1009.6F   7/ 9   3/130/ 9
Folly Beach CMAN 0400   76     130/ 18/ 21 1014.2F
Capers Nearshore 0408   75 78  150/ 21/ 29 1014.9F
Fripp Nearshore  0408   76 78  150/ 19/ 27 1011.8F


STATION/POSITION TIME  TEMP    WIND        PRES    WAVE   SWELL
                       AIR SEA DIR/SP/G            HT/PER HT/PER/DIR
                 (UTC) (F)     (DEG/KT/KT) (MB)    (FT/S) (FT/S/D)
5E St. Marys GA  0400      77                N/A     6/ 9   2/110/11
Frying Pan Buoy  0400   78 78  160/ 14/ 16 1016.1
Buoy 41025       0410   79 78  190/ 14/ 17 1018.6
Cape Lookout NC  0400          180/  8/  9 1018.0S
Buoy 41002       0410      78  150/ 16/ 19 1017.7
Buoy 41010       0410   78 78  140/ 21/ 27 1013.7
St Augustine FL  0400   77 77  160/ 19/ 21 1010.0R


$$




USA.gov is the U.S. government's official web portal to all federal, state and local government web resources and services.